Terminal Aerodrome Forecast
Issued by NWS Wilmington, NC

Home | Current Version | Previous Version | Text Only | Print | Product List | Glossary On
Versions: 1 2 3 4 5 6 7 8 9 10 11 12 13 14 15 16 17 18 19 20 21 22 23 24
009
FTUS42 KILM 230249 AAA
TAFFLO
TAF AMD
KFLO 230249Z 2303/2324 VRB03KT P6SM SCT015 OVC035
      TEMPO 2303/2307 4SM SHRA BKN004
     FM230800 12006KT P6SM OVC008
      TEMPO 2308/2312 4SM SHRA
     FM231300 21006KT P6SM -SHRA VCTS OVC015CB
     FM232000 20008KT P6SM -SHRA VCTS OVC025CB=

USA.gov is the U.S. government's official web portal to all federal, state and local government web resources and services.